Location: Belmont
(13.0833°N, 59.6000°W)
Time: 16:19:05
(UTC+00:00)

Envisat - Pass Details

Date: 17 September 2019
Orbit: 764 x 766 km, 98.1° (Epoch: 17 October)

Event Time Altitude Azimuth Distance (km) Brightness Sun altitude
Rises 22:45:20 0° 178° (S) 3,221 6.2 -12.3°
Reaches altitude 10° 22:47:41 10° 183° (S) 2,296 5.4 -12.9°
Maximum altitude 22:52:37 53° 259° (W) 938 3.9 -14.0°
Drops below altitude 10° 22:57:32 10° 335° (NNW) 2,297 5.9 -15.2°
Sets 22:59:54 0° 340° (NNW) 3,223 6.6 -15.8°
